Location: Alpha Ridge Park
(39.3209°N, 76.9128°W)
Time: 18:26:23
(UTC-05:00)

Hubble Space Telescope - Visible Passes

Search period start: 30 November 2023 00:00
Search period end: 10 December 2023 00:00
Orbit: 519 x 523 km, 28.5° (Epoch: 30 November)

Date Brightness Start Highest point End Pass type
(mag) Time Alt. Az. Time Alt. Az. Time Alt. Az.
30 Nov 3.2 18:17:22 10° SW 18:19:48 15° S 18:22:14 10° SSE visible
01 Dec 3.3 18:01:05 10° SW 18:03:21 15° S 18:05:38 10° SSE visible
02 Dec 3.4 17:44:49 10° SW 17:46:53 14° SSW 17:48:57 10° SSE visible
03 Dec 3.5 17:28:37 10° SW 17:30:24 13° SSW 17:32:11 10° SSE visible
04 Dec 3.6 17:12:31 10° SW 17:13:54 11° SSW 17:15:18 10° S visible
